Regional Weather Roundup
Issued by NWS

Home | Current Version | Previous Version | Graphics & Text | Print | Product List | Glossary On
Versions: 1 2 3 4 5 6 7 8 9 10 11 12 13 14 15 16 17 18 19 20 21 22 23 24 25 26 27 28 29 30 31 32 33 34 35 36 37 38 39 40 41 42 43 44 45 46 47 48 49 50
000
ASUS45 KCYS 182310
RWRWY

WYOMING REGIONAL WEATHER ROUNDUP
NATIONAL WEATHER SERVICE CHEYENNE WY
500 PM MDT WED OCT 18 2017

NOTE:  "FAIR" INDICATES FEW OR NO CLOUDS BELOW 12,000 FEET
WITH NO SIGNIFICANT WEATHER AND/OR OBSTRUCTIONS TO VISIBILITY.

WYZ001-190000-
YELLOWSTONE NATIONAL PARK

CITY           SKY/WX    TMP DP  RH WIND       PRES   REMARKS
LK YELLOWSTONE   N/A     50  24  36 VRB6G18   30.21F
W YELLOWSTONE  NOT AVBL

$$
WYZ002>013-054>058-071-098>099-190000-
NORTHERN WYOMING

CITY           SKY/WX    TMP DP  RH WIND       PRES   REMARKS
JACKSON        FAIR      61  19  19 W13       30.17F
CODY           FAIR      68  17  14 W8G16     30.01S
GREYBULL       FAIR      70  17  13 E7        29.94F
WORLAND        FAIR      69  23  17 SE8       29.96F
SHERIDAN       FAIR      69  27  20 CALM      29.93F
BUFFALO        FAIR      67   7   9 S10       29.99F
GILLETTE       FAIR      66  23  19 S10       29.98F
HULETT         FAIR      66  28  24 S12G20    30.00F
NEWCASTLE      FAIR      63  25  23 SE13G21   30.06S

$$
WYZ014>020-022>026-101>103-190000-
CENTRAL WYOMING

CITY           SKY/WX    TMP DP  RH WIND       PRES   REMARKS
BIG PINEY      FAIR      64  11  12 NW10      30.21S
PINEDALE       FAIR      61  12  15 NW9G18    30.22S
DUBOIS         FAIR      55  12  18 NW13      30.15S
LANDER         FAIR      69  16  13 W9        30.05F
RIVERTON       FAIR      70   8   9 S10       30.06F
CASPER         FAIR      70   7   8 W18       30.06F
DOUGLAS        FAIR      71  15  11 SE5       30.07S

$$
WYZ021-027>030-104>119-190000-
SOUTHERN WYOMING

CITY           SKY/WX    TMP DP  RH WIND       PRES   REMARKS
EVANSTON       FAIR      65   5   9 SW12      30.23F
KEMMERER       FAIR      61  12  15 W12       30.25S
FORT BRIDGER   FAIR      68   4   8 W9        30.25S
ROCK SPRINGS   FAIR      64   2   8 W10       30.22S
DIXON          FAIR      67   9  10 SW5       30.24S
RAWLINS        FAIR      65   8  10 SW17      30.20S
SARATOGA       FAIR      64   9  11 W14G22    30.23S
LARAMIE        FAIR      66   1   7 W16       30.20S
CHEYENNE       FAIR      72   4   7 W8        30.14F
TORRINGTON     FAIR      70  19  14 SE14      30.04F
PINE BLUFFS    FAIR      70  18  13 E10       30.12S HAZE

$$



USA.gov is the U.S. government's official web portal to all federal, state and local government web resources and services.